Location: Unspecified
(0.0000°N, 0.0000°E)
Time: 08:39:34
(UTC+00:00)

deb r/b Ablestar - Pass Details

Date: 18 February 2026
Orbit: 888 x 1147 km, 67.2° (Epoch: 14 March)

Event Time Altitude Azimuth Distance (km) Brightness Sun altitude
Exits shadow 04:18:31 58° 328° (NNW) 1,304 ? -28.2°
Maximum altitude 04:20:07 82° 251° (WSW) 1,152 ? -27.8°
Drops below altitude 10° 04:27:24 10° 164° (SSE) 3,039 ? -26.0°
Sets 04:30:06 0° 163° (SSE) 3,994 ? -25.4°
